User: anonymous   Login
Location: Brno
(49.2000°N, 16.6330°E)
Time: 23:26:30
(UTC+02:00)
Language:

BREEZE M DEB (TANK) - Orbit

View from above orbital plane
View from above orbital plane
View from above satellite
View from above satellite

Ground track
Ground track

The orbit data is extracted from the following two-line orbital elements,

1 28359U 04022B   16236.62068075 +.00001421 +00000-0 +18353-3 0  9998
2 28359 049.5387 344.0154 4677362 334.9862 008.2131 06.18485120266864
Epoch (UTC): 23 August 2016 14:53:46
Eccentricity: 0.4677362
inclination: 49.5387°
perigee height: 294 km
apogee height: 12022 km
right ascension of ascending node: 344.0154°
argument of perigee: 334.9862°
revolutions per day: 6.18485120
mean anomaly at epoch: 8.2131°
orbit number at epoch: 26686

The dashed part of the orbit path shows where the satellite is in the earth's shadow,  

DLR